ASL5L LYBE-LYTV

Flight info

Callsign ASL5L
Flight time 0h 44m
Altitude 30000
Route VAL DCT MOJ/N0375F190 N732 POD
Aircraft A320/M-SDE3FGHIRWY/LB1

Departure

Time 2026-04-30 05:56
Airport Belgrade Nikola Tesla Airport (LYBE)

Arrival

Time 2026-04-30 06:40
Airport Tivat Airport (LYTV)
Time Latitude Longitude Altitude Speed Heading
2026-04-30 05:42 44.82120 20.29247 327 ft 2 kts 208°
2026-04-30 05:42 44.82134 20.29258 326 ft 2 kts 206°
2026-04-30 05:42 44.82149 20.29268 326 ft 2 kts 199°
2026-04-30 05:42 44.82165 20.29274 328 ft 2 kts 164°
2026-04-30 05:43 44.82177 20.29264 326 ft 1 kts 124°
2026-04-30 05:43 44.82178 20.29262 326 ft 0 kts 126°
2026-04-30 05:45 44.82176 20.29265 326 ft 3 kts 126°
2026-04-30 05:46 44.82152 20.29314 328 ft 10 kts 124°
2026-04-30 05:46 44.82106 20.29423 328 ft 16 kts 121°
2026-04-30 05:46 44.82111 20.29543 328 ft 14 kts 58°
2026-04-30 05:46 44.82078 20.29677 328 ft 17 kts 120°
2026-04-30 05:47 44.82006 20.29831 327 ft 21 kts 122°
2026-04-30 05:47 44.81922 20.30022 326 ft 24 kts 122°
2026-04-30 05:47 44.81832 20.30233 327 ft 25 kts 120°
2026-04-30 05:47 44.81734 20.30451 329 ft 27 kts 122°
2026-04-30 05:48 44.81627 20.30690 328 ft 30 kts 121°
2026-04-30 05:48 44.81511 20.30949 327 ft 33 kts 122°
2026-04-30 05:48 44.81388 20.31227 325 ft 34 kts 121°
2026-04-30 05:48 44.81303 20.31419 325 ft 21 kts 123°
2026-04-30 05:49 44.81223 20.31603 327 ft 23 kts 122°
2026-04-30 05:49 44.81132 20.31811 327 ft 28 kts 122°
2026-04-30 05:49 44.81017 20.32061 327 ft 18 kts 120°
2026-04-30 05:49 44.80989 20.32155 327 ft 0 kts 94°
2026-04-30 05:53 44.80996 20.32195 325 ft 10 kts 66°
2026-04-30 05:54 44.81079 20.32284 326 ft 20 kts 31°
2026-04-30 05:54 44.81117 20.32303 326 ft 0 kts
2026-04-30 05:55 44.81125 20.32304 327 ft 5 kts
2026-04-30 05:55 44.81223 20.32274 328 ft 17 kts 338°
2026-04-30 05:55 44.81305 20.32135 329 ft 26 kts 303°
2026-04-30 05:55 44.81404 20.31914 329 ft 59 kts 301°
2026-04-30 05:56 44.81739 20.31153 326 ft 121 kts 302°
2026-04-30 05:56 44.82272 20.29952 495 ft 153 kts 303°
2026-04-30 05:56 44.82823 20.28717 1343 ft 147 kts 303°
2026-04-30 05:56 44.83061 20.27306 2004 ft 160 kts 265°
2026-04-30 05:57 44.82506 20.25778 2321 ft 197 kts 224°
2026-04-30 05:57 44.81421 20.24382 2891 ft 223 kts 224°
2026-04-30 05:57 44.80239 20.22826 3610 ft 238 kts 224°
2026-04-30 05:57 44.79000 20.21166 4490 ft 248 kts 225°
2026-04-30 05:58 44.77747 20.19470 5280 ft 251 kts 225°
2026-04-30 05:58 44.76485 20.17762 5824 ft 255 kts 225°
2026-04-30 05:58 44.75199 20.16025 6003 ft 257 kts 225°
2026-04-30 05:58 44.73908 20.14285 6026 ft 257 kts 225°
2026-04-30 05:59 44.72611 20.12542 6030 ft 257 kts 225°
2026-04-30 05:59 44.71318 20.10800 6031 ft 257 kts 225°
2026-04-30 05:59 44.70022 20.09053 6023 ft 258 kts 225°
2026-04-30 05:59 44.68728 20.07311 6027 ft 258 kts 225°
2026-04-30 06:00 44.67342 20.05720 6024 ft 259 kts 211°
2026-04-30 06:00 44.65631 20.04679 6203 ft 280 kts 200°
2026-04-30 06:00 44.63786 20.03729 7076 ft 286 kts 200°
2026-04-30 06:00 44.61906 20.02755 8007 ft 289 kts 200°
2026-04-30 06:01 44.60009 20.01774 8954 ft 292 kts 201°
2026-04-30 06:01 44.58099 20.00782 9918 ft 293 kts 201°
2026-04-30 06:01 44.56177 19.99785 10808 ft 295 kts 202°
2026-04-30 06:01 44.54250 19.98782 11668 ft 296 kts 202°
2026-04-30 06:02 44.52315 19.97772 12532 ft 297 kts 203°
2026-04-30 06:02 44.50369 19.96759 13399 ft 299 kts 204°
2026-04-30 06:02 44.48411 19.95743 14227 ft 300 kts 204°
2026-04-30 06:02 44.46445 19.94725 14967 ft 302 kts 205°
2026-04-30 06:03 44.44469 19.93703 15704 ft 303 kts 205°
2026-04-30 06:03 44.42478 19.92671 16495 ft 306 kts 206°
2026-04-30 06:03 44.40502 19.91645 17324 ft 308 kts 207°
2026-04-30 06:03 44.38480 19.90599 18185 ft 309 kts 207°
2026-04-30 06:04 44.36457 19.89553 18907 ft 311 kts 207°
2026-04-30 06:04 44.34425 19.88505 19544 ft 313 kts 208°
2026-04-30 06:04 44.32350 19.87516 20197 ft 319 kts 203°
2026-04-30 06:05 44.27703 19.86356 20605 ft 359 kts 197°
2026-04-30 06:05 44.25164 19.85786 20751 ft 375 kts 197°
2026-04-30 06:05 44.22558 19.85219 21153 ft 382 kts 197°
2026-04-30 06:05 44.19917 19.84658 21662 ft 386 kts 197°
2026-04-30 06:06 44.17255 19.84095 22167 ft 389 kts 197°
2026-04-30 06:06 44.14569 19.83523 22690 ft 392 kts 197°
2026-04-30 06:06 44.11869 19.82937 23191 ft 394 kts 197°
2026-04-30 06:06 44.09152 19.82339 23677 ft 396 kts 197°
2026-04-30 06:07 44.06420 19.81733 24119 ft 399 kts 197°
2026-04-30 06:07 44.03669 19.81122 24552 ft 401 kts 198°
2026-04-30 06:07 44.00870 19.80501 24976 ft 404 kts 198°
2026-04-30 06:07 43.98078 19.79882 25400 ft 407 kts 198°
2026-04-30 06:08 43.95274 19.79264 25815 ft 409 kts 198°
2026-04-30 06:08 43.92450 19.78646 26203 ft 412 kts 198°
2026-04-30 06:08 43.89613 19.78029 26598 ft 415 kts 198°
2026-04-30 06:08 43.86743 19.77406 26998 ft 417 kts 199°
2026-04-30 06:09 43.83862 19.76781 27251 ft 419 kts 199°
2026-04-30 06:09 43.80980 19.76157 27304 ft 420 kts 199°
2026-04-30 06:09 43.78089 19.75529 27305 ft 419 kts 199°
2026-04-30 06:09 43.75204 19.74900 27302 ft 419 kts 199°
2026-04-30 06:10 43.72323 19.74272 27301 ft 420 kts 199°
2026-04-30 06:10 43.69433 19.73643 27302 ft 420 kts 199°
2026-04-30 06:10 43.66546 19.73019 27305 ft 420 kts 198°
2026-04-30 06:10 43.63656 19.72393 27301 ft 420 kts 198°
2026-04-30 06:11 43.60770 19.71767 27298 ft 420 kts 198°
2026-04-30 06:11 43.57881 19.71136 27303 ft 420 kts 198°
2026-04-30 06:11 43.54991 19.70503 27299 ft 420 kts 198°
2026-04-30 06:11 43.52101 19.69873 27303 ft 421 kts 198°
2026-04-30 06:12 43.49200 19.69247 27293 ft 421 kts 198°
2026-04-30 06:12 43.46301 19.68625 27292 ft 421 kts 198°
2026-04-30 06:12 43.43399 19.68002 27291 ft 422 kts 198°
2026-04-30 06:12 43.40496 19.67382 27287 ft 422 kts 198°
2026-04-30 06:13 43.37594 19.66764 27288 ft 422 kts 198°
2026-04-30 06:13 43.34691 19.66144 27286 ft 422 kts 198°
2026-04-30 06:13 43.31793 19.65519 27287 ft 422 kts 198°
2026-04-30 06:13 43.28887 19.64890 27278 ft 422 kts 198°
2026-04-30 06:14 43.25980 19.64263 27277 ft 423 kts 198°
2026-04-30 06:14 43.23071 19.63638 27275 ft 422 kts 198°
2026-04-30 06:14 43.20169 19.63019 27277 ft 422 kts 198°
2026-04-30 06:14 43.17264 19.62400 27270 ft 423 kts 198°
2026-04-30 06:15 43.14352 19.61782 27258 ft 423 kts 198°
2026-04-30 06:15 43.11434 19.61164 27264 ft 423 kts 198°
2026-04-30 06:15 43.08527 19.60549 27249 ft 423 kts 198°
2026-04-30 06:15 43.05621 19.59931 27247 ft 422 kts 198°
2026-04-30 06:16 43.02757 19.59328 27202 ft 407 kts 198°
2026-04-30 06:16 43.00000 19.58754 26957 ft 395 kts 198°
2026-04-30 06:16 42.97310 19.58193 26696 ft 386 kts 198°
2026-04-30 06:16 42.94712 19.57502 26429 ft 372 kts 205°
2026-04-30 06:17 42.92326 19.56354 26174 ft 356 kts 213°
2026-04-30 06:17 42.90072 19.55015 25913 ft 350 kts 213°
2026-04-30 06:17 42.87838 19.53712 25662 ft 345 kts 213°
2026-04-30 06:17 42.85647 19.52447 25404 ft 340 kts 213°
2026-04-30 06:18 42.83489 19.51209 25159 ft 333 kts 213°
2026-04-30 06:18 42.81394 19.50009 24917 ft 327 kts 213°
2026-04-30 06:18 42.79312 19.48809 24666 ft 322 kts 213°
2026-04-30 06:18 42.77263 19.47624 24419 ft 318 kts 213°
2026-04-30 06:19 42.75241 19.46458 24229 ft 312 kts 213°
2026-04-30 06:19 42.73277 19.45335 24106 ft 300 kts 213°
2026-04-30 06:19 42.71371 19.44246 23925 ft 294 kts 213°
2026-04-30 06:19 42.69495 19.43168 23679 ft 291 kts 213°
2026-04-30 06:20 42.67636 19.42091 23380 ft 290 kts 213°
2026-04-30 06:20 42.65806 19.41031 23082 ft 289 kts 213°
2026-04-30 06:20 42.63936 19.39951 22805 ft 288 kts 213°
2026-04-30 06:20 42.62095 19.38889 22484 ft 288 kts 213°
2026-04-30 06:21 42.60248 19.37825 22195 ft 288 kts 213°
2026-04-30 06:21 42.58402 19.36764 21849 ft 288 kts 212°
2026-04-30 06:21 42.56560 19.35707 21618 ft 287 kts 212°
2026-04-30 06:21 42.54720 19.34652 21351 ft 286 kts 212°
2026-04-30 06:22 42.52883 19.33602 21088 ft 286 kts 212°
2026-04-30 06:22 42.51053 19.32556 20795 ft 286 kts 212°
2026-04-30 06:22 42.49224 19.31512 20506 ft 285 kts 211°
2026-04-30 06:22 42.47389 19.30464 20265 ft 285 kts 211°
2026-04-30 06:23 42.45563 19.29423 20022 ft 284 kts 211°
2026-04-30 06:23 42.43737 19.28383 19765 ft 284 kts 211°
2026-04-30 06:23 42.41938 19.27358 19498 ft 284 kts 211°
2026-04-30 06:23 42.40118 19.26319 19247 ft 283 kts 210°
2026-04-30 06:24 42.38275 19.25339 19091 ft 287 kts 205°
2026-04-30 06:24 42.36294 19.24585 18448 ft 310 kts 202°
2026-04-30 06:24 42.34835 19.24039 17835 ft 330 kts 201°
2026-04-30 06:24 42.32566 19.23210 16887 ft 344 kts 200°
2026-04-30 06:25 42.30232 19.22380 16368 ft 344 kts 199°
2026-04-30 06:25 42.27190 19.21316 15833 ft 340 kts 199°
2026-04-30 06:25 42.24901 19.20511 15398 ft 338 kts 199°
2026-04-30 06:25 42.23370 19.19969 15111 ft 336 kts 199°
2026-04-30 06:26 42.21145 19.19176 14701 ft 334 kts 199°
2026-04-30 06:26 42.18908 19.18372 14309 ft 332 kts 200°
2026-04-30 06:26 42.16684 19.17572 13931 ft 329 kts 199°
2026-04-30 06:26 42.14500 19.16789 13775 ft 319 kts 199°
2026-04-30 06:27 42.12383 19.16036 13623 ft 310 kts 199°
2026-04-30 06:27 42.10253 19.15275 12869 ft 320 kts 199°
2026-04-30 06:27 42.08083 19.14490 11985 ft 332 kts 198°
2026-04-30 06:27 42.05814 19.13667 11078 ft 343 kts 198°
2026-04-30 06:28 42.03487 19.12832 10374 ft 343 kts 197°
2026-04-30 06:28 42.01269 19.12050 10156 ft 315 kts 197°
2026-04-30 06:28 41.99241 19.11335 10055 ft 290 kts 197°
2026-04-30 06:28 41.97371 19.10675 10067 ft 265 kts 197°
2026-04-30 06:29 41.95616 19.10052 10072 ft 258 kts 198°
2026-04-30 06:29 41.93962 19.09160 9903 ft 257 kts 214°
2026-04-30 06:29 41.92639 19.07557 9511 ft 258 kts 234°
2026-04-30 06:29 41.91808 19.05422 9112 ft 260 kts 252°
2026-04-30 06:30 41.91545 19.03014 8720 ft 263 kts 270°
2026-04-30 06:30 41.91901 19.00599 8339 ft 269 kts 291°
2026-04-30 06:30 41.92986 18.98514 7965 ft 279 kts 317°
2026-04-30 06:30 41.94688 18.97211 7590 ft 288 kts 337°
2026-04-30 06:31 41.96585 18.96243 7209 ft 292 kts 337°
2026-04-30 06:31 41.98454 18.95298 6832 ft 281 kts 338°
2026-04-30 06:31 42.00242 18.94396 6471 ft 269 kts 338°
2026-04-30 06:31 42.01937 18.93538 6090 ft 259 kts 338°
2026-04-30 06:32 42.03577 18.92702 5899 ft 242 kts 336°
2026-04-30 06:32 42.05037 18.91825 5904 ft 217 kts 334°
2026-04-30 06:32 42.06378 18.91080 5910 ft 203 kts 336°
2026-04-30 06:32 42.07696 18.90397 5778 ft 205 kts 336°
2026-04-30 06:33 42.09041 18.89713 5270 ft 208 kts 338°
2026-04-30 06:33 42.10394 18.89027 4799 ft 206 kts 339°
2026-04-30 06:33 42.11732 18.88349 4282 ft 205 kts 339°
2026-04-30 06:33 42.13053 18.87678 3933 ft 200 kts 340°
2026-04-30 06:34 42.14378 18.87006 3855 ft 205 kts 340°
2026-04-30 06:34 42.15713 18.86327 3678 ft 205 kts 340°
2026-04-30 06:34 42.17040 18.85653 3568 ft 202 kts 340°
2026-04-30 06:34 42.18320 18.85001 3319 ft 188 kts 340°
2026-04-30 06:35 42.19496 18.84402 3055 ft 181 kts 341°
2026-04-30 06:35 42.20660 18.83811 2931 ft 178 kts 341°
2026-04-30 06:35 42.21819 18.83221 2918 ft 178 kts 341°
2026-04-30 06:35 42.22982 18.82628 2625 ft 177 kts 341°
2026-04-30 06:36 42.24126 18.82045 2249 ft 173 kts 342°
2026-04-30 06:36 42.25247 18.81473 1939 ft 171 kts 342°
2026-04-30 06:36 42.26355 18.80908 1921 ft 170 kts 342°
2026-04-30 06:36 42.27463 18.80344 1924 ft 171 kts 341°
2026-04-30 06:37 42.28560 18.79783 1910 ft 171 kts 341°
2026-04-30 06:37 42.29666 18.79219 1691 ft 168 kts 341°
2026-04-30 06:37 42.30757 18.78661 1522 ft 167 kts 340°
2026-04-30 06:37 42.31796 18.78130 1413 ft 155 kts 340°
2026-04-30 06:38 42.32790 18.77622 1307 ft 151 kts 340°
2026-04-30 06:38 42.33766 18.77124 1204 ft 149 kts 339°
2026-04-30 06:38 42.34736 18.76628 1101 ft 148 kts 340°
2026-04-30 06:38 42.35701 18.76134 1006 ft 148 kts 340°
2026-04-30 06:39 42.36663 18.75643 894 ft 148 kts 340°
2026-04-30 06:39 42.37620 18.75183 631 ft 144 kts 340°
2026-04-30 06:39 42.38495 18.74547 391 ft 141 kts 327°
2026-04-30 06:39 42.39258 18.73735 168 ft 138 kts 324°
2026-04-30 06:40 42.39955 18.72922 28 ft 121 kts 319°
2026-04-30 06:40 42.40510 18.72278 19 ft 87 kts 319°
2026-04-30 06:40 42.40901 18.71810 20 ft 52 kts 318°
2026-04-30 06:40 42.41106 18.71565 19 ft 39 kts 320°
2026-04-30 06:41 42.41250 18.71405 14 ft 13 kts 320°
2026-04-30 06:41 42.41336 18.71380 15 ft 15 kts 41°
2026-04-30 06:41 42.41318 18.71507 17 ft 17 kts 141°
2026-04-30 06:41 42.41217 18.71624 19 ft 21 kts 138°
2026-04-30 06:42 42.41174 18.71730 21 ft 11 kts 64°
2026-04-30 06:42 42.41152 18.71752 20 ft 2 kts 175°
2026-04-30 06:42 42.41151 18.71752 20 ft 0 kts 177°